Weather History for CYYH - December, 2013

Change the Weather History Date:

Tuesday, December 10, 2013

  Actual Average Record
Temperature  
Mean Temperature -32 °F -  
Max Temperature -27 °F -14 °F 8 °F (1996)
Min Temperature -36 °F -25 °F -36 °F (2013)
Degree Days  
Heating Degree Days 96    
Moisture  
Dew Point -38 °F    
Average Humidity 69    
Maximum Humidity 91    
Minimum Humidity 56    
Precipitation  
Precipitation 0.00 in - - ()
Sea Level Pressure  
Sea Level Pressure 29.70 in    
Wind  
Wind Speed 3 mph ()    
Max Wind Speed 9 mph    
Max Gust Speed -    
Visibility 15.0 miles    
Events Snow    
Averages and records for this station are not official NWS values.
T = Trace of Precipitation, MM = Missing Value Source: Averaged Metar Reports

Daily Weather History Graph

Daily Weather History Graph

Search for Another Location

Airport or City:

Trip Planner

Search our weather history database for the weather conditions in past years. The results will help you decide how hot, cold, wet, or windy it might be!

Date:

Astronomy

Dec. 10, 2013 Rise Set
Actual Time 11:34 AM CST 12:39 PM CST
Civil Twilight 9:44 AM CST 2:30 PM CST
Nautical Twilight 8:04 AM CST 4:09 PM CST
Astronomical Twilight 6:47 AM CST 5:26 PM CST
Moon 12:22 PM CST (12/10) 12:56 AM CST (12/10)
Length of Visible Light 4h 46m
Length of Day
1h 04m
Waxing Gibbous, 62% of the Moon is Illuminated
Dec 10
Waxing Gibbous
Dec 17
Full
Dec 25
Last Quarter
Jan 1
New
Jan 7
First Quarter

Hourly Weather History & Observations

Time (CST) Temp. Windchill Dew Point Humidity Pressure Visibility Wind Dir Wind Speed Gust Speed Precip Events Conditions
12:00 AM -32 °F - -38 °F 57% 29.69 in 15 mi SW 3.5 mph - - Snow Snow
12:00 AM -31.0 °F -43.3 °F -38.2 °F 68% 29.69 in 15.0 mi SW 3.5 mph - N/A   Partly Cloudy
1:00 AM -31.0 °F - -36.4 °F 75% 29.69 in 15.0 mi NNE 2.3 mph - N/A   Partly Cloudy
2:00 AM -31.0 °F - -36.4 °F 75% 29.68 in 15.0 mi ESE 2.3 mph - N/A   Partly Cloudy
3:00 AM -31.0 °F - -38.2 °F 68% 29.69 in 15.0 mi Calm Calm - N/A   Partly Cloudy
4:00 AM -32.8 °F -48.2 °F -38.2 °F 75% 29.68 in 15.0 mi ESE 4.6 mph - N/A   Partly Cloudy
5:00 AM -31.0 °F - -32.8 °F 91% 29.68 in 15.0 mi Calm Calm - N/A   Partly Cloudy
6:00 AM -32 °F - -38 °F 57% 29.68 in 15 mi Calm Calm - - Snow Snow
6:00 AM -31.0 °F - -38.2 °F 68% 29.68 in 15.0 mi Calm Calm - N/A   Partly Cloudy
7:00 AM -32.8 °F -48.2 °F -40.0 °F 68% 29.69 in 15.0 mi ENE 4.6 mph - N/A   Partly Cloudy
8:00 AM -32.8 °F - -40.0 °F 68% 29.69 in 15.0 mi East 2.3 mph - N/A   Partly Cloudy
9:00 AM -31.0 °F - -38.2 °F 68% 29.69 in 15.0 mi Calm Calm - N/A   Partly Cloudy
10:00 AM -34.6 °F -47.4 °F -40.0 °F 75% 29.69 in 15.0 mi NE 3.5 mph - N/A   Partly Cloudy
11:00 AM -32.8 °F -45.3 °F -40.0 °F 68% 29.68 in 15.0 mi NE 3.5 mph - N/A   Partly Cloudy
12:00 PM -34 °F - -40 °F 56% 29.69 in 15 mi NNE 3.5 mph - -   Partly Cloudy
12:00 PM -32.8 °F -45.3 °F -40.0 °F 68% 29.69 in 15.0 mi NE 3.5 mph - N/A   Partly Cloudy
1:00 PM -32.8 °F -52.4 °F -40.0 °F 68% 29.69 in 15.0 mi ENE 6.9 mph - N/A   Partly Cloudy
2:00 PM -32.8 °F -54.1 °F -40.0 °F 68% 29.70 in 15.0 mi ENE 8.1 mph - N/A   Partly Cloudy
3:00 PM -32.8 °F -52.4 °F -38.2 °F 75% 29.70 in 15.0 mi NNE 6.9 mph - N/A   Partly Cloudy
4:00 PM -32.8 °F -45.3 °F -38.2 °F 75% 29.72 in 15.0 mi NE 3.5 mph - N/A   Partly Cloudy
5:00 PM -32.8 °F -52.4 °F -38.2 °F 75% 29.73 in 15.0 mi NE 6.9 mph - N/A   Partly Cloudy
6:00 PM -32 °F - -38 °F 59% 29.73 in 15 mi NE 3.5 mph - - Snow Snow
6:00 PM -31.0 °F -43.3 °F -38.2 °F 68% 29.73 in 15.0 mi NE 3.5 mph - N/A   Partly Cloudy
7:00 PM -31.0 °F -48.4 °F -38.2 °F 68% 29.73 in 15.0 mi North 5.8 mph - N/A   Partly Cloudy
8:00 PM -31.0 °F -53.4 °F -38.2 °F 68% 29.74 in 15.0 mi NE 9.2 mph - N/A   Partly Cloudy
9:00 PM -32.8 °F -50.5 °F -38.2 °F 75% 29.75 in 15.0 mi North 5.8 mph - N/A   Mostly Cloudy
9:42 PM - - - N/A% - 15.0 mi ENE 6.9 mph - N/A   Mostly Cloudy
10:00 PM -27.4 °F -45.9 °F -34.6 °F 69% 29.75 in 15.0 mi NNE 6.9 mph - N/A   Mostly Cloudy
10:19 PM - - - N/A% - 15.0 mi North 6.9 mph - N/A   Partly Cloudy
11:00 PM -31.0 °F -50.3 °F -38.2 °F 68% 29.75 in 15.0 mi NNW 6.9 mph - N/A   Partly Cloudy
11:47 PM - - - N/A% - 15.0 mi North 8.1 mph - N/A   Partly Cloudy